DW9007 Weather Reports


Display with metric or nautical units.
time (UTC)temp
F
wind
direction
speed
MPH
gust
MPH
rain 1hr
in
rain 24hr
in
rain mn
in
humidity
%
barometer
mb
20260502163011 59 9 1.0 13.0 0.00 0.00 0.00 57 1015.9
20260502161503 58 355 2.0 8.0 0.00 0.00 0.00 60 1015.9
20260502160104 58 338 1.0 5.0 0.00 0.00 0.00 62 1015.8
20260502151525 55 113 2.0 8.0 0.00 0.00 0.00 70 1015.6
20260502130105 52 52 1.0 3.0 0.00 0.00 0.00 73 1014.1
20260502123049 52 53 0.0 5.0 0.00 0.00 0.00 72 1013.9
20260502121525 52 99 1.0 6.0 0.00 0.00 0.00 71 1013.8
20260502114506 52 72 0.0 2.0 0.00 0.00 0.00 71 1013.5
20260502113054 52 87 0.0 1.0 0.00 0.00 0.00 71 1013.4
20260502111554 52 88 0.0 3.0 0.00 0.00 0.00 70 1013.3
20260502110052 52 59 0.0 3.0 0.00 0.00 0.00 70 1013.0
20260502104553 52 66 0.0 2.0 0.00 0.00 0.00 70 1012.7
20260502103050 53 49 0.0 4.0 0.00 0.00 0.00 69 1013.0
20260502101555 53 11 1.0 5.0 0.00 0.00 0.00 69 1012.9
20260502091527 54 355 0.0 4.0 0.00 0.00 0.00 71 1012.8
20260502071511 55 49 2.0 5.0 0.00 0.00 0.00 79 1013.0
20260502070051 56 29 0.0 5.0 0.00 0.00 0.00 81 1013.2
20260502064551 56 14 0.0 5.0 0.00 0.00 0.00 82 1013.3
20260502063043 56 44 0.0 4.0 0.00 0.00 0.00 84 1013.5
20260502061531 57 70 0.0 3.0 0.00 0.00 0.00 84 1013.4
20260502060012 57 320 0.0 2.0 0.00 0.00 0.00 85 1013.3
20260502054521 57 42 0.0 2.0 0.00 0.00 0.00 85 1013.1
20260502053113 56 76 0.0 0.0 0.00 0.00 0.00 85 1013.0
20260502051600 57 76 0.0 0.0 0.00 0.00 0.00 85 1013.1
20260502050053 57 76 0.0 0.0 0.00 0.00 0.00 85 1012.9
20260502044536 57 76 0.0 0.0 0.00 0.00 0.00 86 1012.9
20260502043035 57 76 0.0 0.0 0.00 0.00 0.00 86 1012.9
20260502041524 57 74 0.0 0.0 0.00 0.00 0.00 86 1012.6
20260502040018 56 74 0.0 1.0 0.00 0.00 0.00 86 1012.9
20260502034605 57 72 0.0 0.0 0.00 0.00 0.00 87 1012.6
20260502033106 57 72 0.0 0.0 0.00 0.00 0.00 87 1012.8
20260502031539 57 72 0.0 0.0 0.00 0.00 0.00 87 1013.1
20260502030037 57 72 0.0 0.0 0.00 0.00 0.00 87 1013.4
20260502024520 57 72 0.0 0.0 0.00 0.00 0.00 85 1013.5
20260502023017 58 72 0.0 0.0 0.00 0.00 0.00 85 1013.5
20260502021606 58 72 0.0 0.0 0.00 0.00 0.00 84 1013.6
20260502020059 58 72 0.0 0.0 0.00 0.00 0.00 84 1013.7
20260502014542 58 72 0.0 0.0 0.00 0.00 0.00 83 1013.3
20260502013039 58 72 0.0 0.0 0.00 0.00 0.00 81 1013.5
20260502011522 59 72 0.0 0.0 0.00 0.00 0.00 81 1013.2
20260502010020 59 72 0.0 0.0 0.00 0.00 0.00 79 1013.1
20260502004607 59 72 0.0 0.0 0.00 0.00 0.00 79 1012.8
20260502003111 59 72 0.0 0.0 0.00 0.00 0.00 78 1012.8
20260502001546 60 72 0.0 0.0 0.00 0.00 0.00 77 1012.7
20260502000044 60 31 0.0 1.0 0.00 0.00 0.00 75 1012.5
20260501234543 60 350 0.0 0.0 0.00 0.00 0.00 73 1012.3
20260501233048 61 350 0.0 0.0 0.00 0.00 0.00 73 1012.2
20260501231540 61 355 0.0 0.0 0.00 0.00 0.00 72 1012.5
20260501230038 61 355 0.0 0.0 0.00 0.00 0.00 70 1012.5
20260501224543 61 340 0.0 0.0 0.00 0.00 0.00 69 1012.4
20260501223036 62 338 0.0 0.0 0.00 0.00 0.00 67 1012.3
20260501221518 62 338 0.0 2.0 0.00 0.00 0.00 66 1012.3
20260501220017 62 71 0.0 1.0 0.00 0.00 0.00 67 1012.4
20260501214556 63 341 0.0 3.0 0.00 0.00 0.00 66 1012.1
20260501213057 63 340 0.0 5.0 0.00 0.00 0.00 66 1011.8
20260501211538 63 71 0.0 1.0 0.00 0.00 0.00 67 1011.7
20260501210042 63 71 0.0 2.0 0.00 0.00 0.00 65 1011.7
20260501204521 63 86 0.0 4.0 0.00 0.00 0.00 65 1012.3
20260501203013 64 63 0.0 4.0 0.00 0.00 0.00 63 1012.5
20260501201602 64 355 0.0 4.0 0.00 0.00 0.00 65 1012.8
20260501201503 64 58 0.0 4.0 0.00 0.00 0.00 65 1012.8
20260501200058 64 84 0.0 4.0 0.00 0.00 0.00 65 1013.4
20260501194558 64 247 0.0 6.0 0.00 0.00 0.00 65 1013.8
20260501193104 64 248 1.0 4.0 0.00 0.00 0.00 63 1014.2
20260501191550 63 9 1.0 5.0 0.00 0.00 0.00 64 1014.3
20260501190120 63 51 0.0 3.0 0.00 0.00 0.00 66 1014.2
20260501184605 63 71 0.0 1.0 0.00 0.00 0.00 69 1013.9
20260501183048 62 263 0.0 2.0 0.00 0.00 0.00 73 1013.6
20260501181532 62 298 0.0 4.0 0.00 0.00 0.00 72 1013.7
20260501180044 61 23 3.0 6.0 0.00 0.00 0.00 74 1013.8
20260501174511 60 69 0.0 3.0 0.00 0.00 0.00 79 1014.0
20260501173012 59 92 1.0 3.0 0.00 0.00 0.00 79 1014.6
20260501171553 58 30 0.0 3.0 0.00 0.00 0.00 80 1014.7